User: anonymous   Login
Location: LDNL
(36.4545°S, 141.6685°E)
Time: 02:38:15
(UTC+10:00)
Language:

LilacSat-2 - Orbit

View from above orbital plane
View from above orbital plane
View from above satellite
View from above satellite

Ground track
Ground track

The orbit data is extracted from the following two-line orbital elements,

1 40908U 15049K   22137.06282284  .00003647  00000-0  19507-3 0  9992
2 40908  97.5158 137.9622 0016874 122.2877 309.1141 15.15582036367734
Epoch (UTC): 17 May 2022 01:30:27
Eccentricity: 0.0016874
inclination: 97.5158°
perigee height: 507 km
apogee height: 531 km
right ascension of ascending node: 137.9622°
argument of perigee: 122.2877°
revolutions per day: 15.15582036
mean anomaly at epoch: 309.1141°
orbit number at epoch: 36773

The dashed part of the orbit path shows where the satellite is in the earth's shadow,  

DLR